Starlink 3554

operational
NORAD ID: 51872 Int'l Des: 2022-022 Owner: SPXS Country: US Constellation: starlink
LEOCIRCULAR

Über Starlink 3554

Beschreibung wird geladen...

Live-Position

3D-Globus wird geladen...

Nächste Überflüge

Höhenverlauf

Altitude vs Time

uPlot chart will show altitude changes over time

Zweizeiliger Elementsatz

1 51872U 22022W 25258.81421946 .00000050 00000-0 21208-4 0 9990
2 51872 53.2170 74.1691 0001249 90.0994 270.0141 15.08838559196719
Epoch: 15. Sept. 2025 • Age: 18 hours

Aktueller Status

Höhe 544.4 km
Geschwindigkeit 7.60 km/s
Subsatellitenpunkt 48.32°N, 68.24°W
Startdatum 3. März 2022
Alter 3.5 years
Typ internet

Technische Details

Klassifizierung Payload
Masse 297.00 kg
Trockenmasse 275.00 kg
Gesamtmasse 297.00 kg
Länge 0.20 m
Durchmesser 2.80 m
Spannweite 9.00 m
Form Box + pan
Hersteller SPXS
Bus-Typ Starlink
Phasenstatus In Orbit
Besitzer/Staat SPXS/US

Große Konstellationen

Loading constellations...